ASRTU-1 (AO-123)

Last updated on Mon Sep 15 2025 00:03:09 GMT+0000 (Coordinated Universal Time)

1 61781U 24199AY 25257.24559688 .00005991 00000+0 21068-3 0 9999 2 61781 97.3393 123.7706 0014379 208.6772 151.3679 15.29628925 91653
UTC large
Height (km)
Speed (km/s)
/
Latitude / Longitude
Inclination (degrees)
Orbital Period (minutes)
Azimuth
Elevation
Range (km)
Doppler Factor

Next 0 passes for location: London (51.5072 / 0.1276)

Sorry there are no passes over London.